Regional Weather Roundup
Issued by NWS

Home | Current Version | Previous Version | Text Only | Print | Product List | Glossary On
Versions: 1 2 3 4 5 6 7 8 9 10 11 12 13 14 15 16 17 18 19 20 21 22 23 24 25 26 27 28 29 30 31 32 33 34 35 36 37 38 39 40 41 42 43 44 45 46 47 48 49 50
101
ASUS44 KJAN 250303
RWRMS

MISSISSIPPI HOURLY WEATHER ROUNDUP
NATIONAL WEATHER SERVICE JACKSON MS
1000 PM CDT FRI OCT 24 2014

NOTE: "FAIR: INDICATES FEW OR NO CLOUDS BELOW 12,000 FEET WITH NO
SIGNIFICANT WEATHER AND/OR OBSTRUCTIONS TO VISIBILITY.

MSZ001>002-007>008-010>013-018>021-025>028-034>036-250400-
NORTHWEST MISSISSIPPI

CITY           SKY/WX    TMP DP  RH WIND       PRES   REMARKS
CLARKSDALE     FAIR      57  54  88 S3        30.12R
CLEVELAND      FAIR      57  55  92 CALM      30.11S
GREENWOOD      CLEAR     52  50  93 CALM      30.12R
GREENVILLE     CLEAR     55  51  86 CALM      30.11S
GRENADA          N/A    N/A N/A N/A MISG        N/A
OLIVE BRANCH   CLEAR     55  55 100 CALM      30.10S
OXFORD         FAIR      52  50  93 CALM      30.12S
TUNICA         CLEAR     55  54  94 SW3       30.11R
$$

MSZ003>006-009-014>017-022>024-029>033-037>039-250400-
NORTHEAST MISSISSIPPI

CITY           SKY/WX    TMP DP  RH WIND       PRES   REMARKS
COLUMBUS AFB   CLEAR     49  47  93 CALM      30.10R
CORINTH        FOG       52  50  93 CALM      30.10R VSB 1
GOLDN TRIANGLE CLEAR     52  43  71 CALM      30.10S
STARKVILLE     FAIR      50  46  87 CALM      30.11S
TUPELO         CLEAR     55  51  86 CALM      30.10R
$$

MSZ040-058-250400-
CENTRAL MISSISSIPPI

CITY           SKY/WX    TMP DP  RH WIND       PRES   REMARKS
JACKSON INTL   CLEAR     52  48  86 CALM      30.12S
JACKSON HAWKNS CLEAR     54  48  80 CALM      30.12S
MERIDIAN KEY   CLEAR     50  47  89 CALM      30.11R
MERIDIAN NAS   CLEAR     51  47  86 CALM      30.10S
RAYMOND        FAIR      50  45  81 MISG      30.12S
VICKSBURG      CLEAR     48  46  93 CALM      30.13R
$$

MSZ059>079-250400-
SOUTH MISSISSIPPI

CITY           SKY/WX    TMP DP  RH WIND       PRES   REMARKS
BROOKHAVEN     FAIR      52  48  87 CALM      30.14R
HATTIESBURG    CLEAR     52  49  89 CALM      30.11R
MCCOMB         CLEAR     60  47  61 N8        30.12R
NATCHEZ        CLEAR     52  46  82 CALM      30.14R
PINE BELT      CLEAR     55  45  67 NW6       30.11S
$$

MSZ080>082-250400-
COASTAL MISSISSIPPI

CITY           SKY/WX    TMP DP  RH WIND       PRES   REMARKS
BILOXI         CLEAR     64  50  60 N3        30.08R
PASCAGOULA     CLEAR     52  48  86 CALM      30.08R
GULFPORT       CLEAR     58  51  78 CALM      30.08R
$$



USA.gov is the U.S. government's official web portal to all federal, state and local government web resources and services.